This demonstration page uses our WeatherBlox Daily Observations layout. Learn more.

39.01783, -85.05884

Hourly Observations for January 10, 2019

Temp ( °F °C ) Dew Point ( °F °C ) Humidity (%) Winds ( mph kmh ) Pressure ( in mb ) Visibility ( mi km ) Precip ( " mm )
12:39 am 00:39 Cloudy with Light Snow 22 -5.6 12 -11.1 66 66 NW 13 20 30.36 1028 7 11.265408 0.001 0.001
12:52 am 00:52 Cloudy with Light Snow 22 -5.6 14 -10 71 71 NNW 10 17 30.3 1026 4 6.437376 0.001 0.001
1:19 am 01:19 Cloudy with Light Snow 22 -5.6 15 -9.4 75 75 NNW 8 13 30.36 1028 6 9.656064 0.001 0.001
1:52 am 01:52 Cloudy with Light Snow 22 -5.6 13 -10.6 68 68 VRB 7 11 30.3 1026 9 14.484096 0.001 0.001
2:52 am 02:52 Cloudy with Light Snow 22 -5.6 12 -11.1 66 66 NNW 9 15 30.3 1026 7 11.265408 0.001 0.001
3:52 am 03:52 Cloudy with Light Snow 22 -5.6 12 -11.1 66 66 NW 9 15 30.3 1026 9 14.484096 0.001 0.001
4:52 am 04:52 Cloudy with Light Snow 21 -6.1 12 -11.1 68 68 NW 7 11 30.3 1026 9 14.484096 0.001 0.001
5:52 am 05:52 Cloudy with Light Snow 22 -5.6 10 -12.2 60 60 WNW 8 13 30.33 1027 9 14.484096 0.001 0.001
6:52 am 06:52 Cloudy with Light Snow 22 -5.6 10 -12.2 60 60 WNW 9 15 30.33 1027 9 14.484096 0.001 0.001
7:52 am 07:52 Cloudy 22 -5.6 11 -11.7 63 63 W 9 15 30.36 1028 10 16.09344 0.001 0.001
8:52 am 08:52 Cloudy 23 -5 11 -11.7 60 60 W 10 17 30.36 1028 10 16.09344 0 0
9:52 am 09:52 Cloudy with Light Snow 23 -5 12 -11.1 63 63 WNW 8 13 30.39 1029 9 14.484096 0.001 0.001
10:52 am 10:52 Cloudy 25 -3.9 13 -10.6 60 60 NW 9 15 30.39 1029 9 14.484096 0.001 0.001
11:52 am 11:52 Cloudy 26 -3.3 13 -10.6 57 57 NW 7 11 30.36 1028 10 16.09344 0 0
12:52 pm 12:52 Cloudy 27 -2.8 14 -10 58 58 NW 12 19 30.33 1027 10 16.09344 0 0
1:52 pm 13:52 Cloudy 27 -2.8 14 -10 58 58 NNW 12 19 30.33 1027 10 16.09344 0 0
2:52 pm 14:52 Cloudy 27 -2.8 15 -9.4 61 61 NW 12 19 30.33 1027 10 16.09344 0 0
3:52 pm 15:52 Cloudy 27 -2.8 15 -9.4 61 61 NNW 8 13 30.33 1027 10 16.09344 0 0
4:52 pm 16:52 Cloudy 27 -2.8 16 -8.9 63 63 NNW 8 13 30.36 1028 10 16.09344 0 0
5:52 pm 17:52 Cloudy 27 -2.8 16 -8.9 63 63 NNW 7 11 30.36 1028 10 16.09344 0 0
6:52 pm 18:52 Cloudy 27 -2.8 16 -8.9 63 63 N 7 11 30.36 1028 10 16.09344 0 0
7:52 pm 19:52 Cloudy 27 -2.8 16 -8.9 63 63 N 5 7 30.36 1028 10 16.09344 0 0
8:52 pm 20:52 Cloudy 26 -3.3 16 -8.9 66 66 Calm 30.36 1028 10 16.09344 0 0
9:52 pm 21:52 Cloudy 26 -3.3 17 -8.3 69 69 NNW 3 6 30.36 1028 10 16.09344 0 0
10:52 pm 22:52 Cloudy 27 -2.8 17 -8.3 66 66 NNE 8 13 30.36 1028 10 16.09344 0 0
11:52 pm 23:52 Cloudy 27 -2.8 17 -8.3 66 66 NNW 7 11 30.36 1028 10 16.09344 0 0

Powered by AerisWeather